TimePDT,TemperatureF,Dew PointF,Humidity,Sea Level PressureIn,VisibilityMPH,Wind Direction,Wind SpeedMPH,Gust SpeedMPH,PrecipitationIn,Events,Conditions,WindDirDegrees,DateUTC
12:53 AM,57.0,37.0,47,29.69,10.0,West,26.5,31.1,N/A,,Partly Cloudy,280,2013-09-26 07:53:00
1:53 AM,55.9,36.0,47,29.70,10.0,West,25.3,-,N/A,,Mostly Cloudy,280,2013-09-26 08:53:00
2:53 AM,54.0,36.0,51,29.70,10.0,West,24.2,-,N/A,,Partly Cloudy,280,2013-09-26 09:53:00
3:53 AM,53.1,37.9,57,29.72,10.0,WNW,23.0,-,N/A,,Mostly Cloudy,290,2013-09-26 10:53:00
4:53 AM,53.1,37.0,55,29.72,10.0,West,17.3,-,N/A,,Clear,280,2013-09-26 11:53:00
5:53 AM,52.0,37.0,57,29.73,10.0,WNW,21.9,-,N/A,,Clear,290,2013-09-26 12:53:00
6:53 AM,51.1,37.0,59,29.76,10.0,West,16.1,-,N/A,,Clear,280,2013-09-26 13:53:00
7:53 AM,53.1,37.0,55,29.78,10.0,West,18.4,26.5,N/A,,Clear,280,2013-09-26 14:53:00
8:53 AM,55.0,37.0,51,29.81,10.0,WNW,21.9,-,N/A,,Clear,290,2013-09-26 15:53:00
9:53 AM,57.9,34.0,41,29.81,10.0,West,17.3,-,N/A,,Clear,280,2013-09-26 16:53:00
10:53 AM,61.0,32.0,34,29.81,10.0,WNW,17.3,24.2,N/A,,Clear,290,2013-09-26 17:53:00
11:53 AM,63.0,28.0,27,29.81,10.0,WNW,13.8,21.9,N/A,,Clear,290,2013-09-26 18:53:00
12:53 PM,64.9,27.0,24,29.80,10.0,NW,12.7,19.6,N/A,,Clear,310,2013-09-26 19:53:00
1:53 PM,64.9,24.1,21,29.79,10.0,Calm,Calm,-,N/A,,Clear,0,2013-09-26 20:53:00
2:53 PM,69.1,21.9,17,29.79,10.0,West,12.7,28.8,N/A,,Clear,280,2013-09-26 21:53:00
3:45 PM,66.2,24.8,21,29.84,1.8,West,31.1,36.8,N/A,,Haze,270,2013-09-26 22:45:00
3:50 PM,66.2,26.6,23,29.84,3.0,West,28.8,36.8,N/A,,Haze,280,2013-09-26 22:50:00
3:53 PM,66.9,26.1,21,29.80,5.0,WNW,25.3,36.8,N/A,,Haze,290,2013-09-26 22:53:00
4:53 PM,64.9,28.0,25,29.82,10.0,WNW,24.2,34.5,N/A,,Clear,300,2013-09-26 23:53:00
5:53 PM,62.1,28.9,29,29.83,10.0,WNW,25.3,-,N/A,,Clear,290,2013-09-27 00:53:00
6:53 PM,60.1,30.0,32,29.84,8.0,WNW,24.2,32.2,N/A,,Clear,300,2013-09-27 01:53:00
7:53 PM,57.9,30.9,36,29.88,10.0,WNW,18.4,-,N/A,,Clear,290,2013-09-27 02:53:00
8:53 PM,55.9,30.9,39,29.90,10.0,West,13.8,-,N/A,,Clear,280,2013-09-27 03:53:00
9:53 PM,55.9,30.0,37,29.91,10.0,West,16.1,-,N/A,,Clear,270,2013-09-27 04:53:00
10:53 PM,55.9,28.9,36,29.92,10.0,West,15.0,-,N/A,,Clear,280,2013-09-27 05:53:00
11:53 PM,55.9,27.0,33,29.92,10.0,WNW,10.4,-,N/A,,Clear,300,2013-09-27 06:53:00